Temp
75 68 65 69 70 74 72 73 72 78 79 73 71 71 72 76 76 76 77 79 80 82 84 84 87 86 84 83 81 80 79 76 77 74 73 74 75 75 77 76 75 75 75 76
68 63 74 78 78 77 74 72 73 79 78 72 70 71 73 76 76 77 77 79 81 79 83 86 86 85 84 83 81 80 79 76 78 79 75 76 76 74 74 74 74 74 74 73
63 73 82 80 78 74 67 67 77 75 76 73 69 66 67 76 76 78 79 82 84 80 83 83 81 84 84 83 81 79 79 79 78 78 76 75 76 73 71 70 71 72 73 74
68 78 78 75 74 71 61 79 82 79 69 61 70 56 63 70 75 76 77 77 78 79 86 85 82 82 84 84 84 80 80 79 79 77 76 75 75 71 69 70 71 71 73 74
70 73 73 71 76 76 73 79 76 75 66 61 66 60 62 66 69 74 79 78 79 77 85 85 83 84 86 86 85 82 81 79 80 79 78 75 74 73 71 69 72 70 72 72
73 78 75 75 80 80 81 75 70 66 58 53 61 62 61 64 74 75 80 80 80 80 82 84 86 86 85 86 86 82 80 79 79 78 77 76 75 72 71 71 71 70 70 71
68 73 76 78 72 76 72 59 51 52 49 53 59 60 66 76 78 81 80 80 83 84 78 81 85 84 84 84 84 83 80 79 79 78 78 77 76 75 74 73 72 70 71 73
58 59 69 77 75 71 65 62 52 47 48 54 58 56 67 77 82 86 86 85 85 83 81 82 85 87 84 84 84 84 81 80 80 79 78 79 79 77 75 76 76 75 74 74
55 61 76 79 78 79 66 61 66 58 48 52 58 66 75 79 79 81 83 84 83 85 83 81 85 86 85 85 84 84 82 82 80 80 79 77 78 78 78 77 77 78 70 73
64 59 68 80 81 75 73 72 60 55 48 48 58 59 62 67 73 79 79 81 82 85 86 85 86 86 87 87 87 86 84 82 81 81 80 80 79 79 80 77 76 76 72 73
63 61 69 70 66 63 69 63 60 58 53 50 50 57 66 69 77 79 78 82 83 84 86 86 87 86 87 88 87 86 84 82 81 81 80 79 78 79 76 78 76 76 75 76
68 59 56 63 71 75 70 66 60 55 54 51 54 58 77 75 78 78 81 82 85 86 86 86 86 87 86 84 86 84 84 83 82 81 80 80 79 78 77 77 76 77 75 74
69 58 52 59 65 74 66 67 60 57 53 53 55 58 72 72 74 74 76 79 79 80 84 86 87 84 83 84 86 83 82 83 83 82 80 80 79 78 78 78 76 76 74 72
70 58 57 53 60 64 64 69 68 58 53 51 56 61 68 73 75 78 78 79 79 79 79 80 85 85 85 84 83 83 82 83 82 82 81 80 79 79 79 78 76 76 74 70
67 59 56 59 67 68 65 68 68 61 58 55 61 66 69 73 75 76 77 79 79 79 80 80 80 78 78 80 82 82 83 83 83 81 80 80 80 80 79 76 76 76 74 70
64 59 55 57 68 68 63 69 68 67 66 62 65 65 69 72 75 76 77 78 77 78 80 80 80 81 80 83 80 84 83 81 82 82 81 81 79 78 77 76 76 75 72 73
60 58 55 51 61 62 57 62 64 64 64 62 57 59 67 72 76 74 75 77 77 78 79 79 78 78 79 79 84 81 83 82 81 81 81 77 78 77 75 77 76 74 69 69
61 56 51 50 53 46 58 66 70 63 64 65 63 61 63 69 71 70 69 68 77 78 78 78 79 80 79 80 81 80 78 77 77 76 77 77 77 76 74 74 73 72 69 66
61 54 51 49 46 53 61 63 63 59 57 65 61 62 64 66 75 69 72 69 72 77 78 79 80 79 78 79 80 81 78 77 77 76 75 75 74 72 71 71 71 70 67 66
60 57 55 49 46 44 56 64 68 68 54 66 64 61 61 62 55 56 65 69 71 77 79 78 78 78 77 76 77 75 75 75 75 75 74 72 72 71 70 69 68 67 67 67
50 50 49 48 48 54 61 65 67 55 53 64 64 62 61 57 58 62 67 69 73 72 75 79 77 74 75 75 75 74 75 74 74 72 70 70 70 70 69 68 67 66 65 66
48 47 46 48 47 47 65 65 58 59 61 64 65 63 62 64 64 67 70 71 72 70 73 78 75 74 75 74 73 73 72 72 71 70 69 70 69 70 69 68 68 67 67 66
49 51 49 52 51 58 60 61 62 62 59 63 66 67 66 67 66 65 65 68 67 73 71 72 73 72 72 73 72 72 72 72 72 70 68 69 70 70 70 69 68 68 67 66
52 54 51 52 56 58 63 64 63 64 63 65 67 68 69 68 69 68 67 66 67 68 69 73 74 71 70 71 71 73 73 73 72 69 69 69 69 68 68 68 68 67 66 65
53 53 51 51 56 59 63 65 64 66 67 70 70 71 71 70 69 71 71 72 73 72 76 74 72 70 70 70 70 71 73 73 70 70 69 69 69 68 65 61 61 65 65 64
55 53 50 49 57 56 59 64 66 65 70 76 75 74 73 71 71 77 75 76 74 75 74 72 72 70 69 69 70 71 71 71 70 69 68 66 66 66 63 60 57 52 54 56
MSLP
1004.66 1005.36 1005.02 1004.64 1004.70 1004.51 1004.45 1004.40 1004.03 1003.53 1004.39 1005.41 1005.94 1005.66 1005.91 1006.24 1006.82 1007.33 1007.55 1007.50 1007.68 1007.96 1008.08 1008.46 1009.09 1009.74 1010.52 1011.21 1011.80 1012.28 1012.86 1013.44 1013.84 1014.44 1014.95 1015.25 1015.39 1015.30 1015.21 1015.10 1015.34 1015.51 1015.36 1015.52
1005.43 1005.15 1004.39 1004.28 1004.10 1003.86 1003.48 1003.54 1002.77 1002.94 1004.24 1005.34 1005.83 1005.48 1005.63 1005.69 1005.86 1005.98 1006.49 1006.96 1007.04 1007.54 1007.80 1008.37 1009.01 1009.66 1010.21 1010.86 1011.58 1012.17 1012.66 1013.29 1013.72 1014.16 1014.39 1014.65 1015.01 1015.34 1014.97 1014.34 1014.94 1015.34 1015.64 1015.92
1005.57 1004.17 1003.57 1003.78 1003.05 1002.94 1002.79 1002.68 1002.36 1002.60 1004.20 1005.39 1005.91 1005.74 1005.75 1005.26 1005.25 1005.65 1005.96 1006.33 1006.58 1006.95 1007.39 1008.12 1008.82 1009.28 1009.87 1010.55 1011.18 1011.71 1012.29 1012.88 1013.45 1013.79 1014.07 1014.62 1015.10 1015.53 1015.46 1015.01 1015.03 1015.35 1015.23 1015.32
1005.14 1003.52 1003.72 1003.37 1003.00 1002.33 1001.94 1001.86 1002.07 1002.46 1003.64 1004.60 1004.73 1005.83 1005.66 1004.82 1004.65 1004.91 1005.50 1006.13 1006.29 1006.78 1006.97 1007.60 1008.30 1009.02 1009.39 1009.89 1010.53 1011.28 1011.90 1012.50 1013.05 1013.40 1013.78 1014.23 1014.54 1015.14 1014.95 1015.01 1014.95 1014.96 1015.06 1015.13
1004.30 1003.52 1003.32 1003.03 1002.14 1001.48 1001.61 1001.57 1002.28 1002.84 1003.83 1004.49 1004.94 1005.53 1004.74 1004.51 1004.31 1004.25 1004.60 1005.43 1005.92 1006.22 1006.51 1007.07 1007.60 1008.05 1008.58 1009.43 1010.09 1010.73 1011.47 1012.16 1012.62 1013.04 1013.19 1013.76 1014.21 1014.42 1014.35 1014.66 1014.52 1014.95 1015.07 1015.13
1004.23 1003.05 1003.01 1002.13 1001.60 1001.59 1001.46 1002.11 1003.22 1003.88 1005.28 1005.81 1005.42 1005.21 1004.22 1003.85 1002.74 1003.21 1003.52 1004.23 1005.24 1005.11 1005.76 1006.50 1007.01 1007.67 1008.32 1008.91 1009.58 1010.46 1011.16 1011.65 1012.14 1012.56 1012.77 1013.20 1013.70 1014.21 1014.41 1014.41 1014.71 1014.89 1014.84 1015.03
1004.31 1003.28 1002.15 1001.94 1001.86 1001.57 1002.01 1003.99 1005.42 1006.23 1007.01 1006.70 1005.58 1005.18 1003.13 1001.57 1001.06 1001.55 1002.31 1003.32 1003.83 1004.35 1005.58 1006.07 1006.75 1007.30 1007.98 1008.59 1009.16 1009.88 1010.63 1011.21 1011.70 1012.15 1012.41 1012.74 1013.08 1013.70 1013.87 1014.16 1014.58 1014.77 1015.10 1015.12
1005.09 1003.52 1001.94 1001.12 1001.33 1001.66 1002.64 1004.11 1005.90 1006.97 1008.00 1006.75 1005.60 1004.53 1002.18 1000.62 1000.13 1000.35 1001.00 1001.79 1003.06 1004.14 1004.94 1005.34 1005.77 1006.29 1007.11 1007.82 1008.46 1009.09 1009.85 1010.54 1011.15 1011.74 1011.93 1012.18 1012.53 1013.10 1013.36 1013.52 1013.96 1014.18 1014.55 1014.85
1004.46 1003.28 1001.67 1001.20 1000.27 1000.84 1002.30 1003.67 1004.35 1006.00 1007.36 1006.90 1005.53 1003.51 1002.06 1001.38 1001.16 1000.45 1001.11 1001.86 1002.68 1003.43 1004.33 1004.89 1005.22 1005.77 1006.43 1007.18 1007.69 1008.26 1009.14 1009.87 1010.54 1010.89 1011.34 1011.73 1012.05 1012.45 1012.57 1013.07 1013.39 1013.72 1014.50 1014.67
1003.48 1003.44 1002.13 1000.98 1000.20 1000.78 1001.43 1002.49 1004.45 1006.18 1007.41 1007.41 1006.02 1004.90 1003.94 1002.55 1001.80 1002.03 1001.89 1001.76 1002.22 1002.74 1003.38 1003.97 1004.49 1005.01 1005.56 1006.13 1006.87 1007.69 1008.43 1008.98 1009.42 1010.19 1010.67 1010.86 1011.16 1011.66 1012.02 1012.57 1013.14 1013.60 1014.11 1014.53
1003.34 1003.83 1002.86 1002.01 1001.97 1002.08 1002.15 1002.73 1004.43 1005.95 1006.85 1007.36 1006.79 1005.46 1004.12 1002.88 1002.97 1001.89 1002.09 1001.57 1001.85 1002.47 1002.83 1003.35 1003.81 1004.42 1004.75 1005.44 1006.38 1007.05 1007.92 1008.65 1009.20 1009.65 1009.95 1010.37 1010.76 1011.21 1011.85 1012.22 1012.65 1013.09 1013.40 1014.02
1003.17 1004.01 1004.06 1003.49 1002.57 1002.61 1002.48 1003.07 1004.10 1005.95 1006.76 1006.82 1006.06 1004.53 1002.87 1002.36 1002.11 1002.22 1002.28 1001.54 1001.61 1001.91 1002.42 1002.96 1003.37 1003.95 1004.64 1005.19 1005.80 1006.50 1007.23 1007.89 1008.09 1008.51 1009.20 1009.58 1010.08 1010.71 1011.19 1011.69 1012.05 1012.50 1013.35 1014.60
1002.94 1004.55 1005.02 1004.24 1003.38 1002.59 1003.28 1003.72 1004.08 1004.59 1005.31 1006.16 1006.01 1004.31 1003.06 1003.59 1004.29 1002.48 1002.67 1001.74 1001.89 1002.09 1002.50 1002.84 1003.33 1003.83 1004.17 1004.79 1005.27 1005.87 1006.52 1006.84 1007.24 1007.96 1008.51 1009.02 1009.51 1010.15 1010.63 1011.12 1011.55 1012.30 1013.45 1014.22
1003.53 1005.19 1006.01 1006.15 1005.66 1004.98 1004.85 1004.87 1004.99 1004.86 1005.96 1006.27 1005.15 1004.19 1003.47 1003.26 1002.74 1002.11 1002.04 1001.86 1001.95 1002.24 1002.62 1002.90 1003.26 1003.51 1003.73 1004.06 1004.58 1005.07 1005.60 1006.02 1006.57 1007.22 1007.85 1008.37 1008.80 1009.18 1009.73 1010.42 1011.20 1011.95 1013.01 1013.84
1005.36 1006.07 1006.34 1006.27 1005.68 1005.20 1005.85 1006.02 1006.09 1006.16 1006.11 1005.68 1004.80 1004.06 1003.45 1002.54 1002.21 1002.17 1002.23 1002.31 1002.67 1002.85 1002.87 1003.01 1003.20 1003.43 1003.75 1004.12 1004.35 1004.66 1004.82 1005.32 1005.85 1006.58 1007.18 1007.41 1007.94 1008.47 1009.19 1010.31 1010.99 1011.83 1012.30 1013.22
1006.73 1007.06 1007.13 1007.01 1006.11 1005.74 1006.41 1006.58 1006.83 1006.89 1006.40 1005.30 1004.73 1004.33 1003.33 1002.57 1002.11 1002.61 1003.00 1003.05 1003.27 1003.32 1003.43 1003.23 1003.04 1003.26 1003.48 1003.49 1003.88 1004.02 1004.40 1004.79 1005.44 1005.96 1006.23 1006.86 1007.40 1007.90 1008.80 1009.92 1010.40 1010.95 1011.96 1012.59
1007.51 1007.81 1008.15 1007.91 1007.04 1006.48 1006.99 1007.35 1007.52 1008.12 1008.26 1007.38 1007.65 1008.01 1006.16 1004.32 1003.45 1004.00 1004.01 1003.88 1004.12 1004.00 1003.92 1003.65 1003.44 1003.05 1002.80 1003.12 1003.06 1003.52 1003.71 1004.19 1004.84 1005.30 1005.79 1006.24 1006.82 1007.50 1008.33 1009.02 1009.81 1010.73 1011.77 1012.31
1007.52 1008.37 1008.86 1009.12 1008.20 1008.08 1007.89 1007.67 1007.77 1008.82 1009.54 1009.13 1009.24 1008.91 1007.91 1006.46 1005.79 1005.36 1005.64 1005.99 1004.91 1004.58 1004.50 1004.39 1004.05 1003.38 1003.08 1002.81 1002.90 1003.27 1003.73 1004.18 1004.54 1005.05 1005.43 1005.93 1006.60 1007.27 1007.93 1008.81 1009.72 1010.55 1011.44 1011.94
1007.51 1008.68 1009.92 1010.07 1009.72 1009.19 1008.40 1008.59 1008.66 1008.85 1009.95 1010.24 1010.44 1009.48 1008.57 1007.20 1005.68 1006.22 1006.55 1007.40 1006.75 1005.13 1004.89 1004.89 1004.74 1004.43 1003.84 1003.29 1002.79 1002.79 1003.33 1003.69 1004.35 1004.87 1005.38 1005.92 1006.45 1007.15 1007.86 1008.65 1009.46 1010.11 1011.03 1011.92
1008.74 1009.17 1010.14 1010.84 1010.67 1010.05 1009.30 1009.14 1008.85 1008.80 1010.08 1010.44 1010.10 1010.03 1010.05 1008.42 1009.12 1009.49 1008.62 1008.00 1007.49 1007.15 1005.54 1005.30 1005.04 1004.83 1004.47 1004.17 1003.55 1003.59 1003.77 1004.08 1004.52 1004.97 1005.43 1005.91 1006.33 1006.87 1007.80 1008.54 1009.26 1009.95 1011.01 1011.50
1010.93 1011.17 1011.52 1011.42 1011.08 1010.35 1009.47 1009.19 1008.88 1009.30 1010.97 1010.33 1010.22 1010.67 1010.49 1011.23 1011.47 1010.53 1009.51 1008.14 1007.62 1007.84 1007.59 1005.88 1005.93 1005.67 1005.53 1005.19 1004.62 1004.54 1004.77 1005.17 1005.27 1005.39 1005.92 1006.56 1007.03 1007.40 1007.98 1008.87 1009.50 1010.15 1011.19 1011.84
1011.96 1012.24 1012.38 1012.17 1011.59 1010.76 1009.77 1009.25 1009.53 1010.35 1010.32 1009.96 1010.10 1010.22 1011.11 1010.73 1009.87 1010.14 1009.54 1008.84 1007.67 1007.52 1007.68 1007.66 1006.41 1006.77 1006.66 1006.31 1005.96 1005.87 1005.94 1005.95 1005.98 1006.23 1006.63 1007.19 1007.79 1008.28 1008.85 1009.45 1010.04 1010.30 1010.93 1011.30
1012.49 1012.62 1012.78 1012.79 1011.73 1011.06 1010.44 1010.36 1010.12 1010.05 1010.28 1010.05 1009.95 1009.70 1009.95 1010.54 1010.19 1008.69 1010.33 1010.34 1008.82 1007.41 1007.49 1008.41 1008.69 1007.39 1007.41 1007.34 1006.90 1006.62 1006.66 1006.76 1006.87 1007.15 1007.61 1007.80 1008.24 1008.57 1009.11 1009.71 1010.43 1010.92 1011.52 1011.91
1012.53 1012.77 1013.02 1012.78 1011.50 1011.04 1010.28 1010.02 1010.33 1010.06 1009.56 1009.65 1009.35 1009.16 1009.45 1009.59 1009.66 1009.91 1009.33 1010.02 1009.34 1007.20 1007.65 1007.55 1007.26 1007.55 1007.74 1007.65 1007.13 1006.92 1007.04 1007.15 1007.47 1007.76 1008.17 1008.44 1008.66 1009.05 1009.46 1009.66 1010.37 1010.84 1011.30 1011.79
1012.78 1012.94 1012.80 1012.43 1011.34 1010.82 1010.27 1010.07 1009.78 1009.28 1008.78 1008.73 1008.60 1008.17 1008.41 1009.05 1008.89 1008.89 1008.43 1007.50 1007.44 1007.42 1006.99 1006.85 1006.91 1007.31 1007.64 1007.67 1007.57 1007.19 1007.40 1007.39 1007.89 1008.20 1008.45 1008.81 1009.20 1009.49 1009.89 1010.36 1010.75 1010.99 1010.86 1011.12
1012.04 1011.92 1012.00 1011.62 1011.01 1011.00 1010.35 1009.89 1009.36 1009.00 1008.14 1007.52 1007.03 1006.77 1007.08 1008.01 1007.97 1007.29 1006.45 1006.11 1006.45 1006.06 1006.12 1006.87 1007.02 1007.65 1007.77 1007.67 1007.52 1007.50 1007.67 1007.60 1007.96 1008.42 1008.65 1009.02 1009.59 1010.14 1010.34 1010.47 1010.96 1010.93 1010.78 1010.99
Wind_Speed
4 1 10 11 6 9 5 5 7 1 10 7 13 3 7 13 9 10 12 15 15 14 12 10 13 17 16 14 12 12 11 7 7 3 3 1 3 2 2 3 5 2 3 1
7 8 12 7 7 11 7 3 10 5 15 5 4 6 4 11 13 15 15 15 17 9 14 12 15 17 18 17 14 13 12 10 8 6 3 3 3 3 3 4 4 3 1 3
6 13 7 8 13 7 4 4 5 7 15 1 7 7 3 5 3 10 8 15 16 14 18 14 15 18 17 17 14 14 14 14 9 8 3 3 5 2 2 3 2 1 3 2
7 12 7 9 7 4 4 2 1 2 4 3 4 4 4 5 13 13 13 13 12 9 19 15 17 17 19 17 15 13 14 14 10 9 5 6 5 4 4 3 4 3 5 3
11 6 6 5 7 4 7 3 1 2 2 2 2 3 7 5 10 14 17 16 14 10 18 17 19 21 20 17 16 14 14 13 12 12 9 6 5 4 3 5 3 3 4 3
11 5 4 7 6 3 2 7 9 7 4 3 5 5 7 6 16 11 16 18 20 18 18 16 17 19 18 16 15 14 15 15 12 12 10 10 8 6 4 3 3 4 3 3
8 10 9 4 6 7 9 8 5 6 7 6 4 2 10 8 10 16 22 21 23 21 12 15 17 18 17 18 17 15 15 15 13 13 12 10 9 10 11 8 6 5 2 2
2 11 2 2 10 11 4 9 8 5 4 7 3 4 7 8 9 16 19 22 22 22 14 19 19 20 20 20 19 18 17 15 14 13 13 12 11 6 6 8 6 5 5 4
5 8 5 5 8 12 5 3 8 4 1 1 4 5 4 14 17 5 11 17 21 22 17 19 16 18 19 20 20 20 17 16 15 16 12 11 11 10 10 8 6 6 4 4
4 6 3 7 6 4 9 5 4 5 1 3 6 3 3 7 7 10 6 15 19 22 20 17 17 16 19 20 20 19 17 19 17 15 12 12 13 12 10 6 7 7 7 6
3 3 12 3 4 2 7 4 6 6 6 7 2 6 6 13 6 14 11 14 19 20 20 16 16 14 17 18 18 19 16 16 14 14 12 11 10 10 7 8 7 7 6 8
6 7 2 5 4 2 4 4 5 7 6 2 4 7 14 13 13 7 13 9 17 20 19 15 14 16 13 16 16 17 17 16 16 15 13 14 11 10 10 9 7 8 7 8
3 3 4 12 12 10 7 7 4 2 5 6 6 7 4 3 17 24 7 5 7 9 14 15 12 12 13 14 16 15 16 18 16 14 13 12 12 11 11 10 8 7 12 16
6 4 7 6 7 6 9 14 12 2 5 2 5 6 5 6 7 8 8 7 5 9 8 9 12 13 13 13 14 15 15 16 15 14 14 13 13 13 12 10 8 11 14 16
6 1 2 1 3 4 6 11 11 11 5 6 6 10 11 11 9 7 7 8 9 8 6 7 8 7 7 8 8 10 13 14 14 14 14 16 13 12 11 9 10 13 16 16
6 3 2 5 6 6 6 14 7 10 13 4 4 2 3 3 9 10 9 10 9 8 7 6 5 6 10 14 12 12 12 13 12 14 16 12 11 11 10 11 13 14 11 17
1 3 4 5 4 5 5 5 8 9 16 6 8 9 16 6 9 9 8 10 8 8 8 8 6 6 4 8 12 13 14 11 12 13 12 11 12 11 10 13 12 13 12 11
4 4 3 3 5 2 4 2 12 18 14 14 11 15 15 4 8 17 16 13 8 8 8 7 7 6 5 3 5 3 5 7 9 9 10 10 10 9 9 10 11 13 12 12
4 6 4 4 1 3 3 5 4 3 6 10 8 13 15 15 8 8 17 17 12 4 5 4 5 5 7 7 3 5 6 9 10 10 8 7 9 9 10 10 13 12 13 11
8 7 6 3 2 3 4 7 6 3 1 5 6 9 10 12 9 7 21 17 16 21 5 6 5 5 9 8 6 6 5 7 6 6 6 6 8 10 10 11 11 9 11 9
4 4 4 2 3 4 4 8 8 5 3 3 2 3 7 3 5 7 13 13 7 11 19 5 8 7 6 7 6 7 6 6 3 6 6 6 5 7 10 10 8 8 9 9
3 2 1 1 1 6 3 4 4 5 4 3 5 3 3 4 8 6 15 13 15 15 15 18 5 7 7 7 5 7 7 5 6 6 7 7 7 6 6 10 7 6 6 5
2 5 3 6 6 3 5 4 3 5 4 4 5 4 3 2 4 12 1 6 8 13 21 20 10 6 6 5 4 6 3 5 6 8 8 8 8 7 6 8 6 5 6 5
1 2 3 3 3 4 7 2 5 7 10 5 5 5 1 7 13 10 12 12 13 13 17 19 6 5 3 2 4 4 3 5 7 8 7 7 6 7 5 4 3 4 6 6
4 4 3 5 8 5 4 3 9 9 9 7 12 9 9 8 13 11 14 12 12 13 10 3 7 6 6 4 4 5 3 5 6 7 6 6 5 5 5 4 2 2 3 7
6 8 5 6 5 4 5 5 9 9 6 5 1 5 7 12 14 14 5 3 7 4 5 4 6 6 5 5 5 5 3 5 7 6 4 4 4 5 5 5 3 6 3 8
Wind_Direction
295 46 238 258 233 241 246 207 208 218 175 162 223 165 185 158 158 175 198 191 196 195 191 176 158 155 161 161 160 168 159 171 144 137 144 151 211 46 98 59 41 358 107 335
3 265 259 243 256 265 260 152 277 237 162 153 228 259 149 166 191 184 189 200 196 180 171 176 156 160 166 168 170 171 169 165 166 166 174 163 125 83 180 182 167 195 20 355
183 247 304 296 301 291 220 202 250 153 175 297 141 311 273 204 171 184 197 199 198 179 175 169 161 168 166 171 169 171 170 170 170 176 157 95 100 112 347 315 347 286 158 229
246 269 253 287 257 187 351 171 270 41 118 186 177 262 248 227 213 200 194 197 195 165 178 174 166 171 174 180 172 161 165 169 175 174 169 161 172 176 211 207 189 235 213 229
248 290 318 307 260 353 263 342 42 81 155 103 307 89 269 176 236 211 197 196 194 176 184 183 173 176 183 171 175 168 166 171 175 180 177 176 173 197 188 209 220 254 284 253
241 260 217 233 307 252 265 41 28 35 62 53 228 135 282 196 218 187 190 189 188 199 189 188 177 176 180 179 173 168 170 183 180 184 178 181 187 171 192 237 259 245 244 254
322 285 287 189 312 337 68 56 357 346 4 220 222 62 234 257 210 180 189 187 190 195 178 182 177 177 178 180 179 175 178 188 189 190 188 188 194 174 192 189 203 216 223 228
221 322 182 202 198 189 183 137 152 227 226 266 60 232 263 235 244 193 180 185 183 189 182 187 183 180 179 182 182 183 184 191 193 193 197 195 197 181 198 192 187 207 192 187
174 264 276 212 244 135 233 183 192 155 154 77 252 323 19 26 15 137 160 170 182 185 182 190 186 181 179 185 187 188 188 193 194 200 196 195 196 196 203 196 184 202 124 185
225 306 211 296 42 1 147 170 50 9 51 5 333 329 246 18 14 355 151 173 182 183 191 188 188 178 186 186 191 192 191 193 194 195 197 200 196 201 205 180 180 177 166 176
95 81 295 27 33 278 337 334 63 117 135 159 212 262 211 124 173 265 263 168 178 187 193 191 191 186 181 185 186 193 192 196 198 197 195 193 203 199 185 197 182 182 175 168
228 150 354 217 260 287 247 248 146 129 251 200 160 270 188 177 199 253 269 185 178 184 189 189 187 187 179 183 184 189 193 195 200 198 193 199 196 193 189 193 184 173 140 89
340 20 25 347 357 351 26 339 268 100 91 181 139 260 198 156 148 260 203 172 161 159 186 191 188 182 188 183 186 184 191 200 199 194 194 197 199 193 198 194 179 138 124 125
31 99 140 180 221 239 9 2 347 50 72 200 215 128 120 204 138 105 105 111 117 134 153 181 193 198 194 190 185 187 193 197 194 192 194 198 198 197 195 185 160 138 138 137
62 88 64 172 240 69 75 17 20 43 277 134 246 159 195 168 143 120 102 79 70 65 69 164 182 189 203 197 197 200 201 195 190 191 194 204 199 195 183 150 152 145 160 154
352 321 103 335 347 54 68 33 25 21 336 330 105 62 311 174 109 97 92 80 75 71 75 47 23 202 194 197 195 201 202 201 188 194 203 198 190 183 168 147 163 169 155 160
137 58 33 300 324 40 34 352 51 69 13 351 14 341 333 339 90 68 78 88 84 58 40 34 27 23 221 204 195 194 204 194 189 196 199 188 185 180 160 164 164 154 152 157
263 97 89 216 17 54 217 329 99 93 38 27 32 4 350 330 84 49 30 360 57 68 56 36 20 27 24 0 182 141 131 181 180 185 187 180 173 167 156 146 146 149 158 161
143 112 66 112 183 273 61 8 18 43 26 15 38 25 11 343 37 10 22 356 329 84 81 68 33 356 350 6 323 210 187 167 169 176 171 165 155 148 149 148 148 153 153 159
41 69 103 74 111 194 230 300 306 235 55 13 27 56 25 15 55 287 336 340 336 350 23 52 49 20 16 358 51 72 107 125 136 144 148 143 154 156 148 141 147 150 145 147
1 4 131 169 192 279 279 299 288 123 239 305 204 238 103 106 203 254 292 335 357 357 340 29 30 30 11 1 30 64 77 67 58 95 100 98 98 114 127 120 128 124 132 149
132 79 339 53 175 262 327 348 93 195 302 277 196 200 304 233 176 357 354 343 343 340 332 334 50 36 11 14 53 60 54 46 56 65 79 83 86 98 110 124 139 131 126 136
26 166 193 168 227 262 288 226 193 158 201 249 141 177 260 155 305 121 131 31 333 339 309 312 275 79 33 23 42 91 83 90 90 80 76 95 97 91 107 124 143 132 146 150
85 136 180 33 277 196 249 198 208 211 226 233 211 163 141 193 180 209 190 198 204 198 254 256 139 119 96 69 87 95 115 97 104 102 103 98 103 105 115 108 136 166 155 151
197 120 202 260 280 277 292 236 228 228 236 213 185 167 199 248 284 224 223 217 216 238 204 206 160 146 149 141 101 78 82 111 112 123 129 139 142 144 121 80 86 151 170 161
178 180 169 223 228 179 260 266 259 254 265 277 93 302 218 199 247 262 247 214 203 210 131 166 124 131 159 147 130 127 113 129 135 145 152 167 150 160 157 150 121 50 71 185